FDX670 BIIS-EGPB

Flight info

Callsign FDX670
Flight time 1h 41m
Altitude 37000
Route RE1A RE ASKUR HN H6312 6310N VG PEMOS ELPAP
Aircraft B738/M-VGDW/C

Departure

Time 2026-05-07 15:47
Airport Ísafjörður Airport (BIIS)

Arrival

Time 2026-05-07 17:28
Airport Sumburgh Airport (EGPB)
Time Latitude Longitude Altitude Speed Heading
2026-05-07 15:28 66.05558 -23.14303 25 ft 0 kts 151°
2026-05-07 15:40 66.05564 -23.14312 25 ft 3 kts 164°
2026-05-07 15:40 66.05585 -23.14315 27 ft 3 kts 199°
2026-05-07 15:41 66.05603 -23.14289 25 ft 3 kts 233°
2026-05-07 15:41 66.05608 -23.14271 25 ft 0 kts 246°
2026-05-07 15:43 66.05606 -23.14303 23 ft 6 kts 269°
2026-05-07 15:44 66.05597 -23.14495 16 ft 14 kts 247°
2026-05-07 15:44 66.05550 -23.14704 18 ft 14 kts 232°
2026-05-07 15:44 66.05520 -23.14799 18 ft 3 kts 249°
2026-05-07 15:44 66.05527 -23.14817 19 ft 1 kts
2026-05-07 15:45 66.05543 -23.14768 19 ft 5 kts 58°
2026-05-07 15:45 66.05545 -23.14761 19 ft 0 kts 62°
2026-05-07 15:46 66.05678 -23.14150 19 ft 78 kts 61°
2026-05-07 15:46 66.06053 -23.12508 61 ft 136 kts 60°
2026-05-07 15:46 66.06761 -23.10547 392 ft 167 kts 40°
2026-05-07 15:47 66.07802 -23.08980 1047 ft 182 kts 25°
2026-05-07 15:47 66.08943 -23.07483 2131 ft 198 kts 30°
2026-05-07 15:47 66.10045 -23.05222 3124 ft 211 kts 47°
2026-05-07 15:47 66.10866 -23.02136 4207 ft 227 kts 61°
2026-05-07 15:48 66.11240 -22.98170 5092 ft 246 kts 89°
2026-05-07 15:48 66.10712 -22.94085 6185 ft 261 kts 122°
2026-05-07 15:48 66.09381 -22.90917 7240 ft 271 kts 138°
2026-05-07 15:48 66.07900 -22.87960 8274 ft 277 kts 139°
2026-05-07 15:49 66.06479 -22.84707 9294 ft 282 kts 130°
2026-05-07 15:49 66.05172 -22.80922 10054 ft 298 kts 126°
2026-05-07 15:49 66.03879 -22.76760 10695 ft 315 kts 125°
2026-05-07 15:49 66.02509 -22.72378 11316 ft 332 kts 126°
2026-05-07 15:50 66.01021 -22.67846 11861 ft 349 kts 128°
2026-05-07 15:50 65.99443 -22.63204 12374 ft 366 kts 128°
2026-05-07 15:50 65.97761 -22.58298 12884 ft 382 kts 128°
2026-05-07 15:50 65.96066 -22.53323 13916 ft 382 kts 128°
2026-05-07 15:51 65.94344 -22.48213 14447 ft 394 kts 128°
2026-05-07 15:51 65.92726 -22.42747 15142 ft 398 kts 119°
2026-05-07 15:51 65.91489 -22.36665 15878 ft 401 kts 112°
2026-05-07 15:51 65.90346 -22.30404 16588 ft 405 kts 111°
2026-05-07 15:52 65.89215 -22.24055 17314 ft 409 kts 111°
2026-05-07 15:52 65.88075 -22.17618 18013 ft 414 kts 111°
2026-05-07 15:52 65.86916 -22.11138 18678 ft 418 kts 111°
2026-05-07 15:52 65.85729 -22.04594 19253 ft 422 kts 112°
2026-05-07 15:53 65.84525 -21.98017 19836 ft 426 kts 112°
2026-05-07 15:53 65.83311 -21.91386 20403 ft 430 kts 112°
2026-05-07 15:53 65.82088 -21.84701 20957 ft 433 kts 111°
2026-05-07 15:53 65.80868 -21.78040 21484 ft 437 kts 111°
2026-05-07 15:54 65.79618 -21.71239 22001 ft 440 kts 112°
2026-05-07 15:54 65.78355 -21.64407 22498 ft 444 kts 112°
2026-05-07 15:54 65.77078 -21.57528 22981 ft 447 kts 112°
2026-05-07 15:54 65.75792 -21.50620 23453 ft 451 kts 112°
2026-05-07 15:55 65.74487 -21.43633 23895 ft 454 kts 112°
2026-05-07 15:55 65.73172 -21.36615 24253 ft 457 kts 112°
2026-05-07 15:55 65.71846 -21.29562 24606 ft 460 kts 112°
2026-05-07 15:55 65.70509 -21.22475 24937 ft 463 kts 112°
2026-05-07 15:56 65.69161 -21.15356 25279 ft 465 kts 112°
2026-05-07 15:56 65.67801 -21.08203 25610 ft 468 kts 112°
2026-05-07 15:56 65.66429 -21.01004 25938 ft 470 kts 112°
2026-05-07 15:56 65.65048 -20.93790 26256 ft 473 kts 112°
2026-05-07 15:57 65.63657 -20.86547 26563 ft 475 kts 112°
2026-05-07 15:57 65.62257 -20.79286 26954 ft 476 kts 112°
2026-05-07 15:57 65.60853 -20.72028 27370 ft 476 kts 112°
2026-05-07 15:57 65.59446 -20.64781 27800 ft 476 kts 112°
2026-05-07 15:58 65.58036 -20.57546 28231 ft 475 kts 112°
2026-05-07 15:58 65.56622 -20.50308 28672 ft 475 kts 112°
2026-05-07 15:58 65.55208 -20.43100 29108 ft 475 kts 112°
2026-05-07 15:58 65.53789 -20.35891 29559 ft 474 kts 112°
2026-05-07 15:59 65.52370 -20.28710 30021 ft 474 kts 112°
2026-05-07 15:59 65.50965 -20.21622 30441 ft 474 kts 112°
2026-05-07 15:59 65.49542 -20.14467 30791 ft 473 kts 112°
2026-05-07 15:59 65.48115 -20.07321 31140 ft 473 kts 112°
2026-05-07 16:00 65.46685 -20.00179 31479 ft 474 kts 113°
2026-05-07 16:00 65.45251 -19.93043 31823 ft 474 kts 113°
2026-05-07 16:00 65.43810 -19.85896 32160 ft 474 kts 113°
2026-05-07 16:00 65.42364 -19.78753 32512 ft 474 kts 113°
2026-05-07 16:01 65.40916 -19.71620 32855 ft 474 kts 114°
2026-05-07 16:01 65.39467 -19.64511 33214 ft 474 kts 114°
2026-05-07 16:01 65.38012 -19.57396 33569 ft 474 kts 114°
2026-05-07 16:01 65.36558 -19.50305 33914 ft 474 kts 114°
2026-05-07 16:02 65.35100 -19.43223 34258 ft 474 kts 114°
2026-05-07 16:02 65.33639 -19.36151 34543 ft 474 kts 114°
2026-05-07 16:02 65.32176 -19.29088 34829 ft 474 kts 114°
2026-05-07 16:02 65.30709 -19.22033 35104 ft 474 kts 115°
2026-05-07 16:03 65.29238 -19.14985 35375 ft 474 kts 115°
2026-05-07 16:03 65.27764 -19.07944 35655 ft 474 kts 115°
2026-05-07 16:03 65.26284 -19.00895 35927 ft 474 kts 115°
2026-05-07 16:03 65.24803 -18.93869 36205 ft 474 kts 115°
2026-05-07 16:04 65.23336 -18.86929 36478 ft 474 kts 115°
2026-05-07 16:04 65.21847 -18.79918 36740 ft 474 kts 115°
2026-05-07 16:04 65.20334 -18.72823 37004 ft 474 kts 115°
2026-05-07 16:04 65.18838 -18.65942 37255 ft 474 kts 117°
2026-05-07 16:05 65.17213 -18.59105 37522 ft 475 kts 119°
2026-05-07 16:05 65.15487 -18.52406 37781 ft 475 kts 121°
2026-05-07 16:05 65.13739 -18.45743 38031 ft 475 kts 120°
2026-05-07 16:05 65.12032 -18.39030 38285 ft 475 kts 119°
2026-05-07 16:06 65.10369 -18.32264 38521 ft 474 kts 118°
2026-05-07 16:06 65.08711 -18.25473 38759 ft 475 kts 119°
2026-05-07 16:06 65.07038 -18.18736 38920 ft 476 kts 119°
2026-05-07 16:06 65.05327 -18.11987 39021 ft 479 kts 120°
2026-05-07 16:07 65.03596 -18.05222 39162 ft 480 kts 120°
2026-05-07 16:07 65.00142 -17.91651 39251 ft 483 kts 120°
2026-05-07 16:08 64.96683 -17.78064 39260 ft 479 kts 120°
2026-05-07 16:08 64.93262 -17.64782 39263 ft 468 kts 120°
2026-05-07 16:09 64.89878 -17.51705 39265 ft 466 kts 120°
2026-05-07 16:09 64.86500 -17.38712 39265 ft 466 kts 120°
2026-05-07 16:10 64.83089 -17.25683 39265 ft 467 kts 120°
2026-05-07 16:10 64.79690 -17.12771 39265 ft 468 kts 120°
2026-05-07 16:11 64.76251 -16.99786 39268 ft 469 kts 120°
2026-05-07 16:11 64.72801 -16.86836 39258 ft 469 kts 121°
2026-05-07 16:12 64.69897 -16.75991 39256 ft 469 kts 120°
2026-05-07 16:12 64.66442 -16.63159 39249 ft 469 kts 121°
2026-05-07 16:13 64.62960 -16.50295 39248 ft 468 kts 121°
2026-05-07 16:13 64.59467 -16.37469 39240 ft 468 kts 121°
2026-05-07 16:14 64.55974 -16.24717 39231 ft 467 kts 122°
2026-05-07 16:14 64.52474 -16.12014 39223 ft 466 kts 122°
2026-05-07 16:15 64.48962 -15.99338 39212 ft 466 kts 122°
2026-05-07 16:15 64.45443 -15.86708 39197 ft 466 kts 122°
2026-05-07 16:16 64.41910 -15.74098 39164 ft 466 kts 122°
2026-05-07 16:16 64.38369 -15.61530 39154 ft 467 kts 122°
2026-05-07 16:17 64.34812 -15.48980 39149 ft 467 kts 123°
2026-05-07 16:17 64.31240 -15.36444 39146 ft 468 kts 123°
2026-05-07 16:18 64.27647 -15.23915 39143 ft 468 kts 123°
2026-05-07 16:18 64.24553 -15.10784 39147 ft 467 kts 117°
2026-05-07 16:19 64.21581 -14.97494 39142 ft 468 kts 116°
2026-05-07 16:19 64.18620 -14.84296 39134 ft 467 kts 117°
2026-05-07 16:20 64.15603 -14.71008 39141 ft 467 kts 117°
2026-05-07 16:20 64.12593 -14.57812 39139 ft 467 kts 117°
2026-05-07 16:21 64.09569 -14.44619 39130 ft 468 kts 117°
2026-05-07 16:21 64.06531 -14.31460 39123 ft 468 kts 118°
2026-05-07 16:22 64.03479 -14.18317 39125 ft 469 kts 118°
2026-05-07 16:22 64.00415 -14.05197 39122 ft 469 kts 118°
2026-05-07 16:23 63.97352 -13.92168 39108 ft 469 kts 118°
2026-05-07 16:23 63.94261 -13.79095 39097 ft 469 kts 118°
2026-05-07 16:24 63.91157 -13.66046 39101 ft 469 kts 118°
2026-05-07 16:24 63.88035 -13.52999 39096 ft 470 kts 119°
2026-05-07 16:25 63.84909 -13.40012 39090 ft 470 kts 119°
2026-05-07 16:25 63.81765 -13.27031 39072 ft 470 kts 119°
2026-05-07 16:26 63.78607 -13.14068 39068 ft 471 kts 119°
2026-05-07 16:26 63.75430 -13.01102 39063 ft 471 kts 120°
2026-05-07 16:27 63.72238 -12.88156 39064 ft 471 kts 120°
2026-05-07 16:27 63.69034 -12.75234 39054 ft 471 kts 120°
2026-05-07 16:28 63.65819 -12.62344 39044 ft 471 kts 120°
2026-05-07 16:28 63.62620 -12.49590 39035 ft 471 kts 120°
2026-05-07 16:29 63.59383 -12.36766 39029 ft 471 kts 120°
2026-05-07 16:29 63.56136 -12.23969 39024 ft 471 kts 120°
2026-05-07 16:30 63.52879 -12.11213 39019 ft 471 kts 121°
2026-05-07 16:30 63.49604 -11.98464 39006 ft 472 kts 120°
2026-05-07 16:31 63.46486 -11.85540 39001 ft 473 kts 118°
2026-05-07 16:31 63.43434 -11.72507 38995 ft 472 kts 119°
2026-05-07 16:32 63.40274 -11.59638 38987 ft 472 kts 120°
2026-05-07 16:32 63.37125 -11.46781 38984 ft 472 kts 119°
2026-05-07 16:33 63.33986 -11.33906 38974 ft 473 kts 119°
2026-05-07 16:33 63.30811 -11.21071 38964 ft 473 kts 120°
2026-05-07 16:34 63.27629 -11.08268 38959 ft 473 kts 120°
2026-05-07 16:34 63.24439 -10.95476 38957 ft 473 kts 120°
2026-05-07 16:35 63.21235 -10.82721 38950 ft 474 kts 120°
2026-05-07 16:35 63.18008 -10.69957 38947 ft 474 kts 120°
2026-05-07 16:36 63.14795 -10.57304 38926 ft 474 kts 120°
2026-05-07 16:36 63.11552 -10.44614 38917 ft 474 kts 120°
2026-05-07 16:37 63.08295 -10.31943 38914 ft 474 kts 121°
2026-05-07 16:37 63.05032 -10.19320 38902 ft 473 kts 121°
2026-05-07 16:38 63.01757 -10.06735 38901 ft 474 kts 121°
2026-05-07 16:38 62.98229 -9.94489 38894 ft 473 kts 126°
2026-05-07 16:39 62.94435 -9.82657 38877 ft 473 kts 127°
2026-05-07 16:39 62.90608 -9.70901 38864 ft 473 kts 127°
2026-05-07 16:40 62.86787 -9.59152 38856 ft 473 kts 127°
2026-05-07 16:40 62.82957 -9.47437 38845 ft 473 kts 127°
2026-05-07 16:41 62.79102 -9.35723 38841 ft 475 kts 127°
2026-05-07 16:41 62.75232 -9.24016 38831 ft 475 kts 127°
2026-05-07 16:42 62.71377 -9.12412 38821 ft 475 kts 128°
2026-05-07 16:42 62.67485 -9.00765 38802 ft 475 kts 128°
2026-05-07 16:43 62.63587 -8.89152 38795 ft 475 kts 128°
2026-05-07 16:43 62.59674 -8.77554 38793 ft 475 kts 128°
2026-05-07 16:44 62.55753 -8.65992 38783 ft 476 kts 128°
2026-05-07 16:44 62.51823 -8.54464 38767 ft 475 kts 128°
2026-05-07 16:45 62.47879 -8.42948 38755 ft 476 kts 128°
2026-05-07 16:45 62.43948 -8.31531 38759 ft 476 kts 128°
2026-05-07 16:46 62.39978 -8.20061 38755 ft 477 kts 129°
2026-05-07 16:46 62.35993 -8.08602 38737 ft 476 kts 129°
2026-05-07 16:47 62.32016 -7.97223 38721 ft 475 kts 129°
2026-05-07 16:47 62.28045 -7.85920 38715 ft 473 kts 129°
2026-05-07 16:48 62.24077 -7.74680 38707 ft 472 kts 129°
2026-05-07 16:48 62.20105 -7.63483 38701 ft 471 kts 129°
2026-05-07 16:49 62.16128 -7.52327 38699 ft 471 kts 129°
2026-05-07 16:49 62.12145 -7.41206 38706 ft 471 kts 129°
2026-05-07 16:50 62.08151 -7.30113 38711 ft 471 kts 129°
2026-05-07 16:50 62.04816 -7.20899 38619 ft 472 kts 131°
2026-05-07 16:50 62.02284 -7.13502 38669 ft 460 kts 126°
2026-05-07 16:51 62.00586 -7.07756 38688 ft 458 kts 123°
2026-05-07 16:51 61.97825 -6.98044 38699 ft 458 kts 125°
2026-05-07 16:52 61.94298 -6.86725 38705 ft 460 kts 127°
2026-05-07 16:52 61.90729 -6.75401 38706 ft 461 kts 126°
2026-05-07 16:53 61.87249 -6.64057 38706 ft 460 kts 126°
2026-05-07 16:53 61.83711 -6.52749 38705 ft 461 kts 127°
2026-05-07 16:54 61.80145 -6.41442 38711 ft 461 kts 126°
2026-05-07 16:54 61.76586 -6.30138 38713 ft 462 kts 127°
2026-05-07 16:55 61.73015 -6.18879 38713 ft 461 kts 127°
2026-05-07 16:55 61.69432 -6.07648 38719 ft 461 kts 127°
2026-05-07 16:56 61.65847 -5.96453 38717 ft 461 kts 127°
2026-05-07 16:56 61.60451 -5.79709 38720 ft 461 kts 127°
2026-05-07 16:57 61.56865 -5.68648 38720 ft 461 kts 127°
2026-05-07 16:57 61.53247 -5.57544 38726 ft 461 kts 127°
2026-05-07 16:58 61.49598 -5.46400 38743 ft 462 kts 128°
2026-05-07 16:58 61.45980 -5.35399 38735 ft 461 kts 128°
2026-05-07 16:59 61.42329 -5.24349 38737 ft 462 kts 128°
2026-05-07 16:59 61.38665 -5.13319 38739 ft 463 kts 128°
2026-05-07 17:00 61.34985 -5.02292 38743 ft 463 kts 128°
2026-05-07 17:00 61.31283 -4.91252 38430 ft 472 kts 128°
2026-05-07 17:01 61.29389 -4.85629 37785 ft 474 kts 129°
2026-05-07 17:01 61.27499 -4.80019 37216 ft 473 kts 129°
2026-05-07 17:01 61.25616 -4.74438 36678 ft 470 kts 130°
2026-05-07 17:01 61.23739 -4.68891 36143 ft 468 kts 131°
2026-05-07 17:02 61.21861 -4.63368 35615 ft 466 kts 131°
2026-05-07 17:02 61.19993 -4.57888 35089 ft 464 kts 133°
2026-05-07 17:02 61.18152 -4.52496 34574 ft 462 kts 133°
2026-05-07 17:02 61.16271 -4.46998 34039 ft 461 kts 134°
2026-05-07 17:03 61.14440 -4.41659 33489 ft 459 kts 135°
2026-05-07 17:03 61.12602 -4.36311 32941 ft 455 kts 135°
2026-05-07 17:03 61.10773 -4.31002 32423 ft 451 kts 135°
2026-05-07 17:03 61.08900 -4.25601 31894 ft 462 kts 135°
2026-05-07 17:04 61.07038 -4.20253 31377 ft 463 kts 135°
2026-05-07 17:04 61.05168 -4.14848 30700 ft 463 kts 135°
2026-05-07 17:04 61.03291 -4.09435 29895 ft 464 kts 135°
2026-05-07 17:04 61.01404 -4.04018 29010 ft 465 kts 135°
2026-05-07 17:05 60.99451 -3.98785 28450 ft 451 kts 140°
2026-05-07 17:05 60.97392 -3.94005 28102 ft 440 kts 141°
2026-05-07 17:05 60.95350 -3.89311 27868 ft 444 kts 141°
2026-05-07 17:05 60.93244 -3.84559 27623 ft 454 kts 141°
2026-05-07 17:06 60.91100 -3.79734 27393 ft 457 kts 141°
2026-05-07 17:06 60.88975 -3.74902 27155 ft 455 kts 140°
2026-05-07 17:06 60.86857 -3.70071 26926 ft 456 kts 140°
2026-05-07 17:06 60.84727 -3.65237 26695 ft 456 kts 140°
2026-05-07 17:07 60.82594 -3.60429 26462 ft 456 kts 140°
2026-05-07 17:07 60.80448 -3.55615 26221 ft 457 kts 140°
2026-05-07 17:07 60.78301 -3.50807 26012 ft 457 kts 140°
2026-05-07 17:07 60.76163 -3.46012 25984 ft 457 kts 140°
2026-05-07 17:08 60.74002 -3.41179 25815 ft 462 kts 140°
2026-05-07 17:08 60.71861 -3.36390 25575 ft 449 kts 140°
2026-05-07 17:08 60.69777 -3.31734 25326 ft 453 kts 140°
2026-05-07 17:08 60.67623 -3.26973 25115 ft 455 kts 140°
2026-05-07 17:09 60.65510 -3.22283 24845 ft 443 kts 140°
2026-05-07 17:09 60.63396 -3.17608 24616 ft 453 kts 140°
2026-05-07 17:09 60.61260 -3.12900 24386 ft 445 kts 140°
2026-05-07 17:09 60.59177 -3.08294 24117 ft 446 kts 140°
2026-05-07 17:10 60.57050 -3.03632 23909 ft 449 kts 140°
2026-05-07 17:10 60.54958 -2.99033 23635 ft 437 kts 140°
2026-05-07 17:10 60.52855 -2.94433 23400 ft 448 kts 140°
2026-05-07 17:10 60.50783 -2.89908 23142 ft 437 kts 140°
2026-05-07 17:11 60.48717 -2.85392 22860 ft 440 kts 140°
2026-05-07 17:11 60.46621 -2.80842 22651 ft 437 kts 140°
2026-05-07 17:11 60.44563 -2.76362 22209 ft 436 kts 140°
2026-05-07 17:11 60.42494 -2.71883 22115 ft 434 kts 140°
2026-05-07 17:12 60.40415 -2.67395 21363 ft 438 kts 140°
2026-05-07 17:12 60.38336 -2.62908 20543 ft 436 kts 139°
2026-05-07 17:12 60.36270 -2.58448 19826 ft 432 kts 139°
2026-05-07 17:12 60.34230 -2.54049 19123 ft 427 kts 139°
2026-05-07 17:13 60.32199 -2.49690 18380 ft 425 kts 139°
2026-05-07 17:13 60.30205 -2.45424 17766 ft 418 kts 139°
2026-05-07 17:13 60.28232 -2.41204 17260 ft 409 kts 138°
2026-05-07 17:13 60.26303 -2.37083 16763 ft 400 kts 138°
2026-05-07 17:14 60.24392 -2.33010 16302 ft 391 kts 138°
2026-05-07 17:14 60.22562 -2.29119 15801 ft 383 kts 138°
2026-05-07 17:14 60.20749 -2.25272 14888 ft 377 kts 138°
2026-05-07 17:14 60.18931 -2.21429 13968 ft 371 kts 138°
2026-05-07 17:15 60.17185 -2.17735 13047 ft 366 kts 138°
2026-05-07 17:15 60.15446 -2.14062 12076 ft 360 kts 138°
2026-05-07 17:15 60.13735 -2.10450 11155 ft 354 kts 138°
2026-05-07 17:15 60.12051 -2.06903 10465 ft 344 kts 138°
2026-05-07 17:16 60.10444 -2.03517 10000 ft 326 kts 138°
2026-05-07 17:16 60.08923 -2.00316 9566 ft 309 kts 139°
2026-05-07 17:16 60.07473 -1.97273 9147 ft 293 kts 139°
2026-05-07 17:16 60.06101 -1.94406 8824 ft 278 kts 139°
2026-05-07 17:17 60.04796 -1.91682 8564 ft 263 kts 139°
2026-05-07 17:17 60.03567 -1.89114 8331 ft 247 kts 139°
2026-05-07 17:17 60.02439 -1.86747 7909 ft 223 kts 140°
2026-05-07 17:17 60.01404 -1.84587 7328 ft 205 kts 140°
2026-05-07 17:18 60.00452 -1.82613 6798 ft 190 kts 140°
2026-05-07 17:18 59.99579 -1.80799 6295 ft 173 kts 141°
2026-05-07 17:18 59.98774 -1.79131 5805 ft 160 kts 141°
2026-05-07 17:18 59.98028 -1.77587 5302 ft 153 kts 142°
2026-05-07 17:19 59.97311 -1.76104 4924 ft 143 kts 142°
2026-05-07 17:19 59.96632 -1.74696 4527 ft 137 kts 142°
2026-05-07 17:19 59.96006 -1.73394 4236 ft 124 kts 143°
2026-05-07 17:19 59.95427 -1.72160 4045 ft 121 kts 141°
2026-05-07 17:20 59.94919 -1.70763 3908 ft 128 kts 133°
2026-05-07 17:20 59.94508 -1.69160 3744 ft 133 kts 124°
2026-05-07 17:20 59.94220 -1.67383 3606 ft 137 kts 115°
2026-05-07 17:20 59.94077 -1.65476 3431 ft 143 kts 106°
2026-05-07 17:21 59.94096 -1.63416 3084 ft 151 kts 95°
2026-05-07 17:21 59.94312 -1.61350 2750 ft 155 kts 85°
2026-05-07 17:21 59.94723 -1.59347 2431 ft 157 kts 74°
2026-05-07 17:21 59.95280 -1.57527 2310 ft 153 kts 71°
2026-05-07 17:22 59.95840 -1.55686 2237 ft 156 kts 71°
2026-05-07 17:22 59.96453 -1.53868 2182 ft 159 kts 64°
2026-05-07 17:22 59.97123 -1.52090 2149 ft 160 kts 64°
2026-05-07 17:22 59.97788 -1.50307 2127 ft 161 kts 64°
2026-05-07 17:23 59.98455 -1.48519 2123 ft 159 kts 64°
2026-05-07 17:23 59.98765 -1.46650 2100 ft 125 kts 112°
2026-05-07 17:23 59.98418 -1.45204 2174 ft 118 kts 143°
2026-05-07 17:23 59.97784 -1.44221 1881 ft 111 kts 152°
2026-05-07 17:24 59.97184 -1.43342 1625 ft 105 kts 152°
2026-05-07 17:24 59.96605 -1.42464 1379 ft 103 kts 149°
2026-05-07 17:24 59.96053 -1.41552 1213 ft 102 kts 149°
2026-05-07 17:24 59.95512 -1.40628 1290 ft 106 kts 149°
2026-05-07 17:25 59.94928 -1.39739 1227 ft 105 kts 153°
2026-05-07 17:25 59.94322 -1.38956 1151 ft 101 kts 155°
2026-05-07 17:25 59.93703 -1.38212 1136 ft 107 kts 152°
2026-05-07 17:25 59.93096 -1.37459 1180 ft 103 kts 154°
2026-05-07 17:26 59.92483 -1.36695 1284 ft 103 kts 155°
2026-05-07 17:26 59.91856 -1.35903 1370 ft 113 kts 149°
2026-05-07 17:26 59.91280 -1.34863 1173 ft 112 kts 147°
2026-05-07 17:26 59.90687 -1.33842 922 ft 114 kts 149°
2026-05-07 17:27 59.90044 -1.32880 715 ft 116 kts 149°
2026-05-07 17:27 59.89398 -1.31930 513 ft 116 kts 149°
2026-05-07 17:27 59.88757 -1.30936 272 ft 119 kts 147°
2026-05-07 17:27 59.88095 -1.29924 88 ft 116 kts 148°
2026-05-07 17:28 59.87546 -1.29112 42 ft 61 kts 144°
2026-05-07 17:28 59.87375 -1.28867 42 ft 15 kts 135°
2026-05-07 17:28 59.87404 -1.28739 43 ft 14 kts 352°
2026-05-07 17:28 59.87488 -1.28802 40 ft 12 kts 334°
2026-05-07 17:29 59.87561 -1.28899 43 ft 13 kts 323°
2026-05-07 17:29 59.87639 -1.29015 43 ft 15 kts 324°
2026-05-07 17:29 59.87698 -1.29099 43 ft 0 kts 324°
2026-05-07 17:29 59.87704 -1.29107 41 ft 3 kts 324°
2026-05-07 17:30 59.87713 -1.29118 42 ft 1 kts 330°
2026-05-07 17:30 59.87729 -1.29116 43 ft 4 kts 18°
2026-05-07 17:30 59.87743 -1.29091 41 ft 5 kts 48°
2026-05-07 17:30 59.87748 -1.29079 41 ft 0 kts 50°